Location: Banff
(51.1667°N, 115.5667°W)
Time: 15:55:52
(UTC+00:00)

Vanguard 1 - Pass Details

Date: 01 December 2020
Orbit: 649 x 3834 km, 34.3° (Epoch: 16 January)

Event Time Altitude Azimuth Distance (km) Brightness Sun altitude
Exits shadow 13:34:03 - 229° (SW) 3,210 12.4 -16.5°
Reaches altitude 10° 13:35:38 10° 219° (SW) 2,827 12.2 -16.3°
Maximum altitude 13:41:04 25° 167° (SSE) 2,510 12.4 -15.5°
Drops below altitude 10° 13:49:15 10° 119° (ESE) 4,434 14.7 -14.2°
Sets 13:54:43 0° 109° (ESE) 6,050 16.2 -13.4°
